Location: ??????????
(48.4699°N, 37.9573°E)
Time: 03:08:37
(UTC+00:00)

BREEZE-M DEB (TANK) - Pass Details

Date: 20 January 2021
Orbit: 309 x 13786 km, 49.6° (Epoch: 24 February)

Event Time Altitude Azimuth Distance (km) Brightness Sun altitude
Rises 15:33:33 0° 271° (W) 2,483 7.7 -13.9°
Reaches altitude 10° 15:35:49 10° 275° (W) 1,304 5.9 -14.3°
Maximum altitude 15:38:09 64° 359° (N) 348 1.7 -14.6°
Enters shadow 15:38:41 43° 62° (ENE) 456 1.9 -14.7°
